AirNav   ProFlight Series 2 Aviation Headset
 
 1338 users online  

KIWH Wabash Municipal Airport
Wabash, Indiana, USA

GOING TO WABASH?


FAA INFORMATION EFFECTIVE 18 JUNE 2020

Location

FAA Identifier: IWH
Lat/Long: 40-45-43.1000N 085-47-55.5000W
40-45.718333N 085-47.925000W
40.7619722,-85.7987500
(estimated)
Elevation: 795.6 ft. / 242.5 m (surveyed)
Variation: 03W (1995)
From city: 3 miles SE of WABASH, IN
Time zone: UTC -4 (UTC -5 during Standard Time)
Zip code: 46992

Airport Operations

Airport use: Open to the public
Activation date: 05/1958
Control tower: no
ARTCC: CHICAGO CENTER
FSS: TERRE HAUTE FLIGHT SERVICE STATION
NOTAMs facility: HUF (NOTAM-D service available)
Attendance: NOV-APR MON - SAT 0800-1700, MAY-OCT MON - SAT 0800-1800, MAY - OCT SUN 1230 - 1730, NOV - APR SUN 1230 - 1700
SEASONAL HOURS
Wind indicator: lighted
Segmented circle: no
Lights: MIRL RY 09/27 PRESET LOW INTST; TO INCR INTST & ACTVT REIL RYS 09 & 27 - CTAF.
Beacon: white-green (lighted land airport)
Operates sunset to sunrise.

Airport Communications

CTAF/UNICOM: 122.8
GRISSOM APPROACH: 121.05
GRISSOM DEPARTURE: 121.05
WX AWOS-3PT at HHG (16 nm E): 126.575 (260-454-1927)
WX AWOS-3 at MZZ (17 nm S): 108.6 (765-674-1317)
WX AWOS-3PT at OKK (18 nm SW): 113.5 (765-452-3014)
  • APCH/DEP SVC PRVDD BY CHICAGO ARTCC ON FREQS 121.05 (REMOTED FROM GRISSOM) WHEN GRISSOM APCH CTL CLSD.

Nearby radio navigation aids

VOR radial/distance  VOR name  Freq  Var
MZZr344/17.0MARION VOR/DME108.6003W
GUSr068/17.5GRISSOM VORTAC108.4502W
OKKr045/18.4KOKOMO VORTAC113.5005W
FWAr251/30.6FORT WAYNE VORTAC117.8006W
OLKr208/(32.1)WEBSTER LAKE VOR110.4003W
MIEr333/36.5MUNCIE VOR/DME114.4003W

Airport Services

Fuel available: 100LL JET-A
SELF SVC FUEL 100LL A AVBL 24 HRS WITH CREDIT CARD.
Parking: tiedowns
Airframe service: NONE
Powerplant service: NONE
Bottled oxygen: NONE
Bulk oxygen: NONE

Runway Information

Runway 9/27

Dimensions: 4401 x 75 ft. / 1341 x 23 m
Surface: asphalt/grooved, in excellent condition
Weight bearing capacity: 
Single wheel: 27.0
Runway edge lights: medium intensity
RUNWAY 9  RUNWAY 27
Latitude: 40-45.661208N40-45.670573N
Longitude: 085-48.475742W085-47.522630W
Elevation: 793.4 ft.791.7 ft.
Traffic pattern: leftleft
Runway heading: 092 magnetic, 089 true272 magnetic, 269 true
Markings: nonprecision, in good conditionnonprecision, in good condition
Visual slope indicator: 2-light PAPI on left (3.00 degrees glide path)2-light PAPI on left (3.00 degrees glide path)
Runway end identifier lights: yesyes
Touchdown point: yes, no lightsyes, no lights
Obstructions: 15 ft. road, 500 ft. from runway, 20:1 slope to clear
+54 FT PLINE 1275 FT FM RY END 19:1 OBSTN CLNC SLOPE - NOT LGTD.
50 ft. trees, 1380 ft. from runway, 23:1 slope to clear

Runway 18/36

Dimensions: 1940 x 60 ft. / 591 x 18 m
Surface: asphalt, in good condition
Weight bearing capacity: 
Single wheel: 27.0
Runway edge lights: low intensity
RUNWAY 18  RUNWAY 36
Latitude: 40-45.996430N40-45.677055N
Longitude: 085-47.760555W085-47.750758W
Elevation: 790.4 ft.792.8 ft.
Traffic pattern: leftleft
Runway heading: 182 magnetic, 179 true002 magnetic, 359 true
Displaced threshold: 403 ft.no
Markings: basic, in good conditionbasic, in good condition
Touchdown point: yes, no lightsyes, no lights
Obstructions: 84 ft. trees, 1298 ft. from runway, 13:1 slope to clear
RY 18 APCH RATIO 20:1 TO DSPLCD THLD.
60 ft. trees, 650 ft. from runway, 100 ft. right of centerline, 8:1 slope to clear

Airport Ownership and Management from official FAA records

Ownership: Publicly-owned
Owner: WABASH BOAC
283 W. 400 S.
WABASH, IN 46992
Phone 260-563-4705
Manager: JEFF LASALLE
283 W. 400 S.
WABASH, IN 46992
Phone 260-563-4705
IN CASE OF EMERGENCY - 260-571-2039

Airport Operational Statistics

Aircraft based on the field: 11
Single engine airplanes: 10
Multi engine airplanes: 1
    
Aircraft operations: avg 86/week *
69% local general aviation
29% transient general aviation
2% air taxi
* for 12-month period ending 31 December 2018

Additional Remarks

A23 ULTRALIGHTS FLY RGT TFC PAT RY 09.
24-HR INSIDE PHONE AVBL.
FOR CD CTC CHICAGO ARTCC AT 630-906-8921.

Instrument Procedures

NOTE: All procedures below are presented as PDF files. If you need a reader for these files, you should download the free Adobe Reader.

NOT FOR NAVIGATION. Please procure official charts for flight.
FAA instrument procedures published for use from 18 June 2020 at 0901Z to 16 July 2020 at 0900Z.

 
IAPs - Instrument Approach Procedures
RNAV (GPS) RWY 09   download (218KB)
RNAV (GPS) RWY 27   download (208KB)
VOR-A   download (195KB)
NOTE: Special Take-Off Minimums/Departure Procedures apply   download (238KB)

Other nearby airports with instrument procedures:

I76 - Peru Municipal Airport (16 nm W)
KHHG - Huntington Municipal Airport (16 nm E)
KMZZ - Marion Municipal Airport (17 nm S)
KGUS - Grissom Air Reserve Base (17 nm SW)
KOKK - Kokomo Municipal Airport (18 nm SW)
 
Loc | Ops | Rwys | IFR | FBO | Links
Com | Nav | Svcs | Stats | Notes
Area around KIWH (Wabash Municipal Airport)
 
Road maps at: MapQuest Bing Google
 
Aerial photo
WARNING: Photo may not be current or correct
Aerial photo of KIWH (Wabash Municipal Airport)
Photo taken 05-Aug-2012
looking northeast.

Do you have a better or more recent aerial photo of Wabash Municipal Airport that you would like to share? If so, please send us your photo.

 
Sectional chart

 
Airport distance calculator
Flying to Wabash Municipal Airport? Find the distance to fly.

From to KIWH

Sunrise and sunset
Times for 10-Jul-2020
 Local
(UTC-4)
 Zulu
(UTC)
Morning civil twilight05:5009:50
Sunrise06:2310:23
Sunset21:1501:15
Evening civil twilight21:4701:47

Current date and time
Zulu (UTC)  10-Jul-2020 19:04:20
Local (UTC-4)  10-Jul-2020 15:04:20
 
METAR
KHHG 
16nm E 
101855Z AUTO 29011G16KT 10SM -RA SCT013 BKN019 OVC023 24/22 A2979 RMK AO2 P0004 T02360224
KMZZ 
17nm S 
101855Z AUTO 30017G24KT 7SM BKN019 BKN023 OVC038 24/22 A2983 RMK AO2 T02390218
KGUS 
18nm SW 
101856Z AUTO 31015G24KT 10SM SCT025 SCT034 BKN050 BKN130 27/22 A2982 RMK AO2 RAE1756DZB1756E12 SLP094 P0000 T02660224 $
KOKK 
18nm SW 
101856Z AUTO 31019G25KT 10SM FEW026 SCT039 OVC050 26/20 A2984 RMK AO2 SLP098 T02560200
KRCR 
25nm NW 
101855Z AUTO 30017G21KT 10SM SCT020 SCT029 BKN033 25/20 A2983 RMK AO2
KGGP 
26nm W 
101855Z AUTO 31011G19KT 10SM BKN030 BKN041 BKN050 26/19 A2984 RMK AO2
KFWA 
30nm NE 
101854Z 29008G22KT 3SM -RA BR FEW022 BKN028 OVC048 23/21 A2978 RMK AO2 PK WND 28027/1843 RAB48 SLP077 P0007 T02330211
KASW 
31nm N 
101855Z AUTO 31015G20KT 10SM SCT012 BKN017 OVC043 25/20 A2980 RMK AO2
TAF
KGUS 
18nm SW 
101400Z 1014/1117 19009KT 8000 -SHRA BKN015 QNH2977INS TEMPO 1015/1019 VRB15G25KT -TSRA BKN025CB BECMG 1018/1019 27020G30KT 9999 NSW SCT030 520003 QNH2975INS BECMG 1023/1024 31009KT 9999 FEW040 QNH2978INS BECMG 1115/1116 30010G15KT 9999 SCT030 QNH2981INS TX30/1020Z TN18/1110Z
NOTAMs
Click for the latest NOTAMs
NOTAMs are issued by the DoD/FAA and will open in a separate window not controlled by AirNav.

 

 
 

FBO, Fuel Providers, and Aircraft Ground Support

  
 Business Name 
 
 Contact 
 
 Services / Description 
 
Fuel Prices
 
Comments
  
Northern Indiana Aviation 260-563-4705
no information available

If you are affiliated with Northern Indiana Aviation and would like to show here your services, contact info, web link, logo, and more, click here
100LL Jet A
SS $4.02 $2.50 
 Updated 08-Jul-2020
 
   3 read write
SS=Self service
Update Fuel Prices
 

Would you like to see your business listed on this page?

 If your business provides an interesting product or service to pilots, flight crews, aircraft, or users of the Wabash Municipal Airport, you should consider listing it here.  To start the listing process, click on the button below
 
Add a business
 

Other Pages about Wabash Municipal Airport

Update a link
 
Copyright © AirNav, LLC. All rights reserved. Privacy Policy  Contact